Location: Caltech
(34.1382°N, 118.1253°W)
Time: 09:34:53
(UTC-07:00)

Iridium 94 - Visible Passes

Search period start: 01 April 2015 00:00
Search period end: 11 April 2015 00:00
Orbit: 775 x 779 km, 86.4° (Epoch: 01 April)

Date Brightness Start Highest point End Pass type
(mag) Time Alt. Az. Time Alt. Az. Time Alt. Az.
01 Apr 7.8 03:14:09 21° NE 03:14:09 21° NE 03:16:17 10° NNE visible
01 Apr 7.2 04:54:38 19° NW 04:54:38 19° NW 04:56:40 10° NNW visible
02 Apr 8.4 02:40:52 12° NE 02:40:52 12° NE 02:41:33 10° NE visible
02 Apr 7.0 04:21:21 26° NNW 04:21:21 26° NNW 04:23:48 10° N visible
03 Apr 7.1 03:48:03 28° N 03:48:03 28° N 03:50:27 10° N visible
04 Apr 7.7 03:14:44 22° NNE 03:14:44 22° NNE 03:16:42 10° NNE visible
04 Apr 7.6 04:55:12 12° NW 04:55:12 12° NW 04:55:57 10° NW visible
05 Apr 8.2 02:41:24 15° NE 02:41:24 15° NE 02:42:29 10° NNE visible
05 Apr 7.4 04:21:52 19° NNW 04:21:52 19° NNW 04:23:33 10° NNW visible
06 Apr 7.3 03:48:31 23° NNW 03:48:31 23° NNW 03:50:27 10° N visible
07 Apr 7.6 03:15:09 22° NNE 03:15:09 22° NNE 03:16:57 10° N visible
08 Apr 8.1 02:41:47 17° NNE 02:41:47 17° NNE 02:43:02 10° NNE visible
08 Apr 7.7 04:22:15 13° NW 04:22:15 13° NW 04:23:03 10° NNW visible
09 Apr 8.5 02:08:24 10° NE 02:08:24 10° NE 02:08:30 10° NE visible
09 Apr 7.6 03:48:52 18° NNW 03:48:52 18° NNW 03:50:18 10° NNW visible
10 Apr 7.6 03:15:28 20° N 03:15:28 20° N 03:17:02 10° N visible
